Regional Weather Roundup
Issued by NWS Sterling, VA

Home | Current Version | Previous Version | Text Only | Print | Product List | Glossary Off
Versions: 1 2 3 4 5 6 7 8 9 10 11 12 13 14 15 16 17 18 19 20 21 22 23 24 25 26 27 28

000
ASUS41 KLWX 170611
RWRLWX

REGIONAL WEATHER ROUNDUP
NATIONAL WEATHER SERVICE BALTIMORE MD/WASHINGTON DC
200 AM EDT THU AUG 17 2017

Note: "FAIR" indicates few or no clouds below 12,000 feet
with no significant weather and/or obstructions to visibility.
 TC=TEMPERATURE CELSIUS

 * =Non NWS site. Station does not report precipitation (e.g. rain,
    snow, etc.), thunder, or fog.

DCZ001-MDZ009-015-VAZ040>042-051-053>054-170700-
WASHINGTON METRO

CITY           SKY/WX    TMP DP  RH WIND       PRES   REMARKS
WASHINGTON NAT CLOUDY    80  75  84 S3        30.02F
DULLES         MOCLDY    73  72  96 CALM      30.03S
ANDREWS AFB    PTCLDY    76  73  92 S3        30.02S
FT BELVOIR     PTCLDY    74  72  92 CALM      30.01F
QUANTICO       PTCLDY    76  74  93 W5        30.02F
COLLEGE PARK*  CLOUDY    74  71  91 CALM      30.02S
LEESBURG*      PTCLDY    72  72 100 CALM      30.04S
MANASSAS*      PTCLDY    71  70  96 CALM      30.03S
GAITHERSBURG*  PTCLDY    69  68  96 CALM      30.05F

$$

MDZ006>007-011-014-170700-
BALTIMORE METRO

CITY           SKY/WX    TMP DP  RH WIND       PRES   REMARKS
BWI AIRPORT    PTCLDY    71  71 100 CALM      30.02S
MD SCIENCE CTR   N/A     79  71  76 MISG      30.02S
MARTIN STATE   CLEAR     72  72 100 CALM      30.03F FOG
ANNAPOLIS      CLEAR     78  78 100 CALM      30.01F
FORT MEADE*    CLOUDY    68  68 100 CALM      30.05S

$$

MDZ012-015-019>023-170700-
MARYLAND EASTERN SHORE

CITY           SKY/WX    TMP DP  RH WIND       PRES   REMARKS
OCEAN CITY     PTCLDY    74  73  97 SW6       30.03S
SALISBURY      CLEAR     73  72  96 CALM      30.02F
BAY BRIDGE AP* MOCLDY    77  72  83 SE3       30.01F
CAMBRIDGE*     MOCLDY    73  72  94 CALM      30.02S
EASTON*        CLEAR     73  71  93 CALM      30.05F

$$

MDZ017>025-170700-
SOUTHERN MARYLAND

CITY           SKY/WX    TMP DP  RH WIND       PRES   REMARKS
PATUXENT RIVER MOCLDY    75  73  93 S5        30.01F
ST INIGOES     PTCLDY    73  72  96 E3        30.01F
LEONARDTOWN*   PTCLDY    73  70  88 CALM      30.04S

$$

MDZ003>005-170700-
NORTH CENTRAL MARYLAND

CITY           SKY/WX    TMP DP  RH WIND       PRES   REMARKS
FREDERICK*     FOG       68  68 100 CALM      30.07S VSB 1/2
HAGERSTOWN APT CLEAR     71  64  78 NE7       30.04F
WESTMINSTER*   CLEAR     70  66  88 CALM      30.06S

$$

MDZ501>502-170700-
WESTERN MARYLAND

CITY           SKY/WX    TMP DP  RH WIND       PRES   REMARKS
OAKLAND*       CLEAR     64  59  82 SE7       30.12F
CUMBERLAND*    CLEAR     68  64  88 CALM      30.10S

$$

VAZ025>031-170700-
SHENANDOAH VALLEY

CITY           SKY/WX    TMP DP  RH WIND       PRES   REMARKS
WINCHESTER*    CLEAR     68  66  94 CALM      30.04F FOG
FRONT ROYAL*   CLEAR     68  68 100 CALM      30.04S
LURAY*         MOCLDY    72  70  94 CALM      30.06R FOG
NEW MARKET*    CLEAR     69  68  96 CALM      30.05S
STAUNTON*      CLEAR     66  65  97 CALM      30.09S FOG
WAYNESBORO*    CLEAR     68  68 100 CALM      30.09S

$$

WVZ021-048>050-054>055-170700-
EASTERN WEST VIRGINIA PANHANDLE

CITY           SKY/WX    TMP DP  RH WIND       PRES   REMARKS
MARTINSBURG    NOT AVBL
PETERSBURG*      N/A     69  69  99 CALM      30.07S FOG

$$

VAZ036>039-050-170700-
CENTRAL FOOTHILLS

CITY           SKY/WX    TMP DP  RH WIND       PRES   REMARKS
CHARLOTTESVILL CLEAR     73  71  93 CALM      30.04S
CULPEPER*      CLOUDY    73  73  98 CALM      30.04S
ORANGE*        PTCLDY    70  70 100 CALM      30.03F
GORDONSVILLE*  MOCLDY    71  71 100 CALM      30.03S
WARRENTON*     NOT AVBL

$$

VAZ055>057-170700-
NORTH AND CENTRAL PIEDMONT

CITY           SKY/WX    TMP DP  RH WIND       PRES   REMARKS
FREDERICKSBRG* RAIN      77  72  84 NW3       30.02S
STAFFORD*      CLOUDY    72  72 100 CALM      30.06F FOG

$$

NCZ024-NYZ072-PAZ021-071-VAZ022-071-170700-
OTHER REGIONAL OBSERVATIONS

CITY           SKY/WX    TMP DP  RH WIND       PRES   REMARKS
NEW YORK CITY  CLEAR     74  60  61 NE6       30.06R
PHILADELPHIA   CLEAR     74  69  85 CALM      30.02F
PITTSBURGH     PTCLDY    70  62  76 CALM      30.04F
ROANOKE        CLOUDY    74  69  85 CALM      30.08F
RICHMOND       PTCLDY    74  71  91 S3        30.02F
RALEIGH        CLOUDY    77  74  90 CALM      30.05S

$$

ANZ530>537-170700-
MARINE OBSERVATIONS

STATION/POSITION TIME  TEMP    WIND        PRES
                       AIR SEA DIR/SP/G
                 (UTC) (F)     (DEG/KT/KT) (MB)
THOMAS PT LIGHT  0600   79 79  150/  7/  7   N/A
BALT KEY BRIDGE  0548   78     300/  2/  3 1016.4F
COVE POINT       0548   80     180/  9/  9 1017.0F
LEWISETTA        0548   77 83  200/  7/  8 1016.4F
SOLOMONS ISLAND  0548   79 82  190/  4/  4   N/A
PINEY POINT      0548          180/  3/  3   N/A

$$





USA.gov is the U.S. government's official web portal to all federal, state and local government web resources and services.